Meath Environmental Platform

Observations for Trim Market St

Time AQI Temp °C Hum % Pres Pa CO μg/m³ H₂S μg/m³ NO μg/m³ NO₂ μg/m³ O₃ μg/m³ SO₂ μg/m³ PM1 μg/m³ PM2.5 μg/m³ PM10 μg/m³
Friday 21 August 2026
23:53 2 11.8 72 53,845 0.35 0 3.27 11.19 40.18 0 0.71 2.45 4.47
23:43 2 12 72 54,347 0.35 0 4.29 11.94 40.15 0 1.43 3.44 5.69
23:42 2 12 72 54,387 0.35 0 4.14 13.94 37.48 0 2.14 4.41 6.92
23:41 2 12 72 54,444 0.35 0 4.74 16.35 34.21 0 0.71 2.48 4.46
23:40 2 12 72 54,488 0.39 0 5.78 24.91 22.5 0 1.43 3.44 5.69
23:34 2 12.1 72 54,773 0.32 0 3.16 12.87 38.99 0 1.43 2.98 5.68
23:33 2 12.1 72 54,830 0.33 0 3.16 13.06 39.06 0 2.14 4.43 6.91
23:32 2 12.2 72 54,885 0.34 0 3.21 12.77 40.46 0 1.43 2.98 5.06
23:31 2 12.2 72 54,950 0.33 0 4.01 16.07 37.88 0 1.43 2.98 5.06
23:30 2 12.2 71 55,016 0.33 0 3.8 13.32 39.49 0 1.43 2.99 5.06
23:29 2 12.2 71 55,062 0.36 0 3.71 17.12 35.32 0 1.43 2.99 5.06
23:28 2 12.2 71 55,107 0.37 0 4.53 22.1 29 0 1.43 3.48 5.67
23:27 2 12.2 71 55,150 0.38 0 6.33 22.82 28.14 0 2.14 3.48 5.67
23:26 2 12.3 71 55,192 0.37 0 4.65 29.93 20.17 0 1.43 3.48 5.67
23:25 2 12.3 71 55,245 0.43 0 5.53 45.44 2.55 0 0.71 2.51 4.43
23:24 2 12.3 71 55,299 0.53 0 5.29 25.89 23.61 0 1.43 3.49 6.29
23:23 2 12.3 71 55,352 0.4 0 4.76 24.84 26.04 0 2.85 4.46 6.91
23:22 2 12.4 71 55,396 0.41 0 4.22 24.41 27.12 0 2.14 3.49 5.67
23:21 2 12.4 71 55,438 0.41 0 3.84 14.99 40.45 0 2.14 3.5 6.91
23:19 2 12.4 71 55,472 0.61 0 3.25 26.45 24.35 0 2.14 3.5 5.66